• In Russia
  • List of Countries
  • For 7 days
  • Water Temperature
  • Satellite Maps
  • Weather Map
  • Weather Widgets
  • user-avatar
    Login

    Hourly Weather Mayrhofen

    Today, 8 December, Thursday

    Time Temperature Precipitation Wind Pressure Humidity
    00:00 -7°C° 0 mm 1 mps 622 mmHg 58%
    01:00 -8°C° 0 mm 1 mps 622 mmHg 56%
    02:00 -7°C° 0 mm 1 mps 622 mmHg 56%
    03:00 -7°C° 0 mm 1 mps 622 mmHg 55%
    04:00 -7°C° 0 mm 1 mps 622 mmHg 54%
    05:00 -7°C° 0 mm 1 mps 622 mmHg 53%
    06:00 -7°C° 0 mm 1 mps 621 mmHg 53%
    07:00 -6°C° 0 mm 1 mps 621 mmHg 53%
    08:00 -3°C° 0 mm 1 mps 623 mmHg 54%
    09:00 0°C° 0 mm 1 mps 624 mmHg 56%
    10:00 +2°C° 0 mm 1 mps 626 mmHg 57%
    11:00 +3°C° 0 mm 1 mps 626 mmHg 59%
    12:00 +4°C° 0 mm 1 mps 626 mmHg 62%
    13:00 +5°C° 0 mm 1 mps 626 mmHg 64%
    14:00 +3°C° 0 mm 1 mps 625 mmHg 62%
    15:00 0°C° 0 mm 1 mps 623 mmHg 60%
    16:00 -2°C° 0 mm 1 mps 622 mmHg 58%
    17:00 -3°C° 0 mm 1 mps 622 mmHg 57%
    18:00 -4°C° 0 mm 1 mps 622 mmHg 57%
    19:00 -6°C° 0 mm 1 mps 621 mmHg 56%
    20:00 -4°C° 0 mm 1 mps 622 mmHg 55%
    21:00 -4°C° 0 mm 1 mps 622 mmHg 54%
    22:00 -4°C° 0 mm 1 mps 622 mmHg 52%
    23:00 -3°C° 0 mm 1 mps 622 mmHg 52%

    Tomorrow, 9 December, Friday

    Time Temperature Precipitation Wind Pressure Humidity
    00:00 -3°C° 0 mm 1 mps 623 mmHg 51%
    01:00 -3°C° 0 mm 1 mps 623 mmHg 50%
    02:00 -5°C° 0 mm 2 mps 622 mmHg 50%
    03:00 -5°C° 0 mm 2 mps 622 mmHg 51%
    04:00 -5°C° 0 mm 2 mps 622 mmHg 51%
    05:00 -5°C° 0 mm 2 mps 622 mmHg 50%
    06:00 -5°C° 0 mm 2 mps 622 mmHg 50%
    07:00 -5°C° 0 mm 2 mps 622 mmHg 49%
    08:00 -4°C° 0 mm 2 mps 623 mmHg 50%
    09:00 0°C° 0 mm 1 mps 624 mmHg 51%
    10:00 +2°C° 0 mm 1 mps 625 mmHg 53%
    11:00 +3°C° 0 mm 1 mps 625 mmHg 55%
    12:00 +4°C° 0 mm 1 mps 625 mmHg 58%
    13:00 +5°C° 0 mm 1 mps 625 mmHg 61%
    14:00 +3°C° 0 mm 1 mps 624 mmHg 57%
    15:00 +1°C° 0 mm 1 mps 623 mmHg 53%
    16:00 -1°C° 0 mm 1 mps 622 mmHg 49%
    17:00 -1°C° 0 mm 1 mps 621 mmHg 48%
    18:00 -2°C° 0 mm 1 mps 621 mmHg 48%
    19:00 -2°C° 0 mm 1 mps 621 mmHg 47%
    20:00 -3°C° 0 mm 1 mps 621 mmHg 46%
    21:00 -3°C° 0 mm 1 mps 621 mmHg 45%
    22:00 -3°C° 0 mm 1 mps 621 mmHg 44%
    23:00 -3°C° 0 mm 1 mps 620 mmHg 45%

    Day after tomorrow, 10 December, Saturday

    Time Temperature Precipitation Wind Pressure Humidity
    00:00 -3°C° 0 mm 1 mps 620 mmHg 47%
    01:00 -3°C° 0 mm 1 mps 620 mmHg 48%
    02:00 -3°C° 0 mm 1 mps 619 mmHg 49%
    03:00 -3°C° 0 mm 1 mps 619 mmHg 50%
    04:00 -3°C° 0 mm 1 mps 618 mmHg 51%
    05:00 -4°C° 0 mm 1 mps 618 mmHg 52%
    06:00 -4°C° 0 mm 1 mps 618 mmHg 52%
    07:00 -4°C° 0 mm 1 mps 618 mmHg 53%
    08:00 -1°C° 0 mm 1 mps 619 mmHg 53%
    09:00 +1°C° 0 mm 1 mps 621 mmHg 53%
    10:00 +3°C° 0 mm 1 mps 622 mmHg 53%
    11:00 +4°C° 0 mm 1 mps 622 mmHg 56%
    12:00 +5°C° 0 mm 1 mps 622 mmHg 59%
    13:00 +6°C° 0 mm 1 mps 622 mmHg 62%
    14:00 +3°C° 0 mm 1 mps 621 mmHg 59%
    15:00 +1°C° 0 mm 1 mps 620 mmHg 56%
    16:00 -1°C° 0 mm 1 mps 619 mmHg 52%
    17:00 -2°C° 0 mm 1 mps 618 mmHg 52%
    18:00 -2°C° 0 mm 1 mps 618 mmHg 53%
    19:00 -3°C° 0 mm 1 mps 618 mmHg 53%
    20:00 -3°C° 0 mm 1 mps 618 mmHg 51%
    21:00 -3°C° 0 mm 1 mps 618 mmHg 49%
    22:00 -3°C° 0 mm 1 mps 618 mmHg 47%
    23:00 -4°C° 0 mm 1 mps 617 mmHg 46%

    11 December, Sunday

    Time Temperature Precipitation Wind Pressure Humidity
    00:00 -4°C° 0 mm 1 mps 617 mmHg 46%
    01:00 -4°C° 0 mm 1 mps 616 mmHg 46%
    02:00 -4°C° 0 mm 1 mps 616 mmHg 45%
    03:00 -4°C° 0 mm 1 mps 616 mmHg 44%
    04:00 -4°C° 0 mm 1 mps 615 mmHg 43%
    05:00 -4°C° 0 mm 1 mps 615 mmHg 44%
    06:00 -4°C° 0 mm 1 mps 615 mmHg 44%
    07:00 -4°C° 0 mm 1 mps 615 mmHg 45%
    08:00 -2°C° 0 mm 1 mps 616 mmHg 47%
    09:00 -1°C° 0 mm 1 mps 617 mmHg 49%
    10:00 +1°C° 0 mm 1 mps 618 mmHg 52%
    11:00 +2°C° 0 mm 1 mps 618 mmHg 55%
    12:00 +3°C° 0 mm 1 mps 618 mmHg 58%
    13:00 +4°C° 0 mm 1 mps 618 mmHg 62%
    14:00 +2°C° 0 mm 1 mps 618 mmHg 64%
    15:00 -2°C° 0 mm 2 mps 617 mmHg 66%
    16:00 -3°C° 0 mm 2 mps 616 mmHg 67%
    17:00 -4°C° 0 mm 2 mps 617 mmHg 70%
    18:00 -4°C° 0 mm 2 mps 617 mmHg 72%
    19:00 -4°C° 0 mm 2 mps 617 mmHg 75%
    20:00 -4°C° 0 mm 2 mps 617 mmHg 75%
    21:00 -3°C° 0 mm 1 mps 617 mmHg 76%
    22:00 -3°C° 0 mm 1 mps 617 mmHg 77%
    23:00 -3°C° 0 mm 1 mps 617 mmHg 79%

    12 December, Monday

    Time Temperature Precipitation Wind Pressure Humidity
    00:00 -3°C° 0 mm 1 mps 617 mmHg 82%
    01:00 -3°C° 0 mm 1 mps 617 mmHg 85%
    02:00 -3°C° 0 mm 1 mps 617 mmHg 86%
    03:00 -3°C° 0 mm 1 mps 617 mmHg 88%
    04:00 -4°C° 0 mm 1 mps 617 mmHg 89%
    05:00 -4°C° 0 mm 1 mps 617 mmHg 90%
    06:00 -4°C° 0 mm 1 mps 617 mmHg 90%
    07:00 -4°C° 0 mm 1 mps 616 mmHg 91%
    08:00 -3°C° 0 mm 1 mps 617 mmHg 88%
    09:00 -2°C° 0 mm 1 mps 618 mmHg 85%
    10:00 0°C° 0 mm 1 mps 619 mmHg 82%
    11:00 0°C° 0 mm 1 mps 619 mmHg 81%
    12:00 +1°C° 0 mm 1 mps 619 mmHg 81%
    13:00 +2°C° 0 mm 1 mps 619 mmHg 80%
    14:00 0°C° 0 mm 1 mps 618 mmHg 84%
    15:00 -1°C° 0 mm 1 mps 618 mmHg 88%
    16:00 -2°C° 0 mm 1 mps 617 mmHg 91%
    17:00 -3°C° 0 mm 1 mps 617 mmHg 90%
    18:00 -4°C° 0 mm 1 mps 617 mmHg 90%
    19:00 -4°C° 0 mm 1 mps 617 mmHg 89%
    20:00 -6°C° 0 mm 1 mps 617 mmHg 87%
    21:00 -6°C° 0 mm 1 mps 617 mmHg 85%
    22:00 -7°C° 0 mm 1 mps 617 mmHg 84%
    23:00 -7°C° 0 mm 1 mps 616 mmHg 82%

    13 December, Tuesday

    Time Temperature Precipitation Wind Pressure Humidity
    00:00 -7°C° 0 mm 1 mps 616 mmHg 81%
    01:00 -8°C° 0 mm 1 mps 616 mmHg 80%
    02:00 -8°C° 0 mm 0 mps 616 mmHg 78%
    03:00 -8°C° 0 mm 0 mps 616 mmHg 77%
    04:00 -8°C° 0 mm 0 mps 616 mmHg 76%
    05:00 -8°C° 0 mm 0 mps 616 mmHg 76%
    06:00 -8°C° 0 mm 0 mps 616 mmHg 75%
    07:00 -8°C° 0 mm 0 mps 616 mmHg 75%
    08:00 -6°C° 0 mm 0 mps 617 mmHg 73%
    09:00 -3°C° 0 mm 1 mps 618 mmHg 71%
    10:00 -1°C° 0 mm 1 mps 620 mmHg 68%
    11:00 0°C° 0 mm 1 mps 620 mmHg 70%
    12:00 +1°C° 0 mm 1 mps 620 mmHg 71%
    13:00 +2°C° 0 mm 1 mps 620 mmHg 72%
    14:00 0°C° 0 mm 1 mps 619 mmHg 77%
    15:00 -2°C° 0 mm 1 mps 618 mmHg 82%
    16:00 -3°C° 0 mm 1 mps 618 mmHg 87%
    17:00 -4°C° 0 mm 1 mps 618 mmHg 88%
    18:00 -4°C° 0 mm 1 mps 618 mmHg 89%
    19:00 -6°C° 0 mm 1 mps 617 mmHg 90%
    20:00 -6°C° 0 mm 1 mps 618 mmHg 89%
    21:00 -6°C° 0 mm 1 mps 618 mmHg 89%
    22:00 -6°C° 0 mm 1 mps 618 mmHg 88%
    23:00 -6°C° 0 mm 1 mps 618 mmHg 88%
    Show more